This demonstration page uses our WeatherBlox Daily Observations layout. Learn more.

Left ArrowRight Arrow

39.01783, -85.05884

Hourly Observations for April 23, 2019

Temp ( °F °C ) Dew Point ( °F °C ) Humidity (%) Winds ( mph kmh ) Pressure ( in mb ) Visibility ( mi km ) Precip ( " mm )
12:52 am 00:52 Mostly Clear 62 16.7 44 6.7 52 52 S 8 13 30.02 1017 10 16 N/A
1:52 am 01:52 Partly Cloudy 60 15.6 43 6.1 53 53 S 9 15 30.01 1016 10 16 N/A
2:52 am 02:52 Mostly Clear 57 13.9 44 6.7 62 62 S 9 15 29.99 1016 10 16 N/A
3:52 am 03:52 Partly Cloudy 58 14.4 43 6.1 58 58 S 8 13 29.98 1015 10 16 N/A
4:52 am 04:52 Mostly Cloudy 58 14.4 44 6.7 60 60 S 10 17 29.97 1015 10 16 N/A
5:52 am 05:52 Partly Cloudy 59 15 45 7.2 60 60 SSW 8 13 29.95 1014 10 16 N/A
6:52 am 06:52 Mostly Cloudy 59 15 46 7.8 62 62 SSW 7 11 29.96 1015 10 16 N/A
7:52 am 07:52 Mostly Cloudy 62 16.7 48 8.9 60 60 SSW 10 17 29.96 1015 10 16 N/A
8:52 am 08:52 Mostly Cloudy 65 18.3 50 10 59 59 SW 13 20 29.96 1015 10 16 N/A
9:52 am 09:52 Partly Cloudy 68 20 51 10.6 55 55 WSW 13 20 29.96 1015 10 16 N/A
10:52 am 10:52 Mostly Sunny 71 21.7 54 12.2 55 55 WSW 13 20 29.96 1014 10 16 N/A
11:52 am 11:52 Mostly Cloudy 72 22.2 56 13.3 57 57 WSW 9 15 29.96 1015 10 16 N/A
12:52 pm 12:52 Mostly Cloudy 74 23.3 58 14.4 57 57 WSW 14 22 29.95 1014 10 16 N/A
1:52 pm 13:52 Cloudy 74 23.3 58 14.4 57 57 WSW 10 17 29.94 1014 10 16 N/A
2:52 pm 14:52 Mostly Cloudy 76 24.4 58 14.4 54 54 W 18 30 29.93 1013 10 16 N/A
3:52 pm 15:52 Mostly Cloudy 77 25 58 14.4 52 52 WNW 17 28 29.92 1013 10 16 N/A
4:52 pm 16:52 Mostly Cloudy 75 23.9 59 15 58 58 WNW 15 24 29.91 1013 10 16 N/A
5:52 pm 17:52 Cloudy 73 22.8 57 13.9 57 57 WNW 15 24 29.92 1013 10 16 N/A
6:52 pm 18:52 Cloudy 73 22.8 56 13.3 55 55 W 14 22 29.93 1013 10 16 N/A
7:52 pm 19:52 Partly Cloudy 67 19.4 55 12.8 66 66 NNW 14 22 29.93 1014 10 16 N/A
8:52 pm 20:52 Partly Cloudy 62 16.7 53 11.7 73 73 NNW 13 20 29.96 1015 10 16 N/A
9:52 pm 21:52 Mostly Cloudy 60 15.6 52 11.1 75 75 NNW 8 13 29.98 1015 10 16 N/A
10:52 pm 22:52 Cloudy 57 13.9 50 10 78 78 N 10 17 29.99 1016 10 16 N/A
11:52 pm 23:52 Cloudy 57 13.9 49 9.4 74 74 N 7 11 29.99 1016 10 16 N/A

Powered by AerisWeather